Regional Weather Roundup
Issued by NWS

Home | Current Version | Previous Version | Text Only | Print | Product List | Glossary Off
Versions: 1 2 3 4 5 6 7 8 9 10 11 12 13 14 15 16 17 18 19 20 21 22 23 24 25 26 27 28 29 30 31 32 33 34 35 36 37 38 39 40 41 42 43 44 45 46 47 48 49 50

000
ASUS44 KMEG 221810
RWRTN
TENNESSEE HOURLY STATE WEATHER ROUNDUP
NATIONAL WEATHER SERVICE MEMPHIS TN
100 PM CDT FRI AUG 22 2014

TNZ002-004-019-021-049-052-054-088>092-221900-
WEST TENNESSEE

CITY           SKY/WX    TMP DP  RH WIND       PRES   REMARKS
MEMPHIS INTL   MOSUNNY   94  72  48 VRB7      30.07F HX 102
NWS MEMPHIS      N/A     92 N/A N/A MISG        N/A
JACKSON        SUNNY     92  75  57 W7        30.07F HX 103
DYERSBURG      MOSUNNY   91  70  49 SW9       30.06F HX  97
UNION CITY     MOSUNNY   90  77  66 W7        30.04F HX 102
PARIS          MOSUNNY   88  75  66 W6        30.07F HX  97
HUNTINGDON     SUNNY     89  75  63 W9        30.06F HX  98
LEXINGTON      MOSUNNY   93  73  52 SW9       30.07F HX 102
SAVANNAH       MOSUNNY   91  75  59 CALM      30.09S HX 102
$$

TNZ008-025-027-028-033-062-065-066-221900-
NORTH MIDDLE TENNESSEE

CITY           SKY/WX    TMP DP  RH WIND       PRES   REMARKS
NASHVILLE      CLOUDY    91  73  55 VRB3      30.07F HX  99
DICKSON        PTSUNNY   88  73  62 W9        30.09F HX  96
PORTLAND       CLOUDY    88  73  62 W7        30.07F HX  96
CLARKSVILLE    PTSUNNY   89  74  60 W8        30.06F HX  98
LEBANON        PTSUNNY   89  73  59 W7        30.07F HX  96
SMYRNA         PTSUNNY   91  73  55 W8        30.08F HX  99
MURFREESBORO   PTSUNNY   90  71  53 W8        30.07F HX  96
COOKEVILLE     MOSUNNY   91  75  59 W7        30.10F HX 102
LIVINGSTON     MOSUNNY   85  71  62 W10       30.12  HX  90
GALLATIN       PTSUNNY   90  76  63 W6        30.08F HX 101
CROSSVILLE     MOSUNNY   84  68  58 W10       30.16F
$$

TNZ061-075-076-078-094-096-097-221900-
SOUTH MIDDLE TENNESSEE

CITY           SKY/WX    TMP DP  RH WIND       PRES   REMARKS
LEWISBURG      PTSUNNY   91  72  53 VRB3      30.09F HX  98
FAYETTEVILLE   PTSUNNY   88  70  55 NW6       30.11F HX  92
TULLAHOMA      MOSUNNY   88  70  55 W6        30.12F HX  92
WINCHESTER     MOSUNNY   88  72  58 W5        30.11F HX  94
MCMINNVILLE    MOSUNNY   88  75  66 VRB5      30.11F HX  97
COLUMBIA       MOSUNNY   91  75  59 CALM      30.08F HX 102
SHELBYVILLE    MOSUNNY   91  75  59 W3        30.11S HX 102
$$

TNZ017-018-042-046-047-221900-
NORTHEAST TENNESSEE

CITY           SKY/WX    TMP DP  RH WIND       PRES   REMARKS
TRI CITIES     PTSUNNY   86  70  58 W10       30.09F HX  90
ELIZABETHTON   CLEAR     84  72  65 W8        30.10F
$$

TNZ012-013-036-069-073-074-221900-
CENTRAL EAST TENNESSEE

CITY           SKY/WX    TMP DP  RH WIND       PRES   REMARKS
KNOXVILLE      PTSUNNY   88  73  61 SW8       30.08F HX  95
OAK RIDGE      MOSUNNY   90  72  55 VRB5      30.09F HX  97
GATLINBURG     PTCLDY    91  72  52 VRB6      30.08F HX  98
MORRISTOWN     CLEAR     88  72  58 W12       30.11F HX  94
$$

TNZ083-085-099-221900-
SOUTHEAST TENNESSEE

CITY           SKY/WX    TMP DP  RH WIND       PRES   REMARKS
CHATTANOOGA    PTSUNNY   92  68  45 NW10      30.09F HX  96
$$

SKY/WX REPORTED AS FAIR MEANS FEW OR NO CLOUDS BELOW
12 THOUSAND FEET.




USA.gov is the U.S. government's official web portal to all federal, state and local government web resources and services.